COSMOS 2251 DEB

Satellite information

Favourite Embed

Satellite Type and Status

DEBRISIN ORBIT

Key statistics

Satellite COSMOS 2251 DEB at a glance.

Uptime

11868

Days in orbit

Revolutions

≈ 14.4

Per day

Orbit

LEO

Low Earth Orbit

Inclination

74.0

Latest

Satellite identification and parameters

Extended collection of information and parameters for COSMOS 2251 DEB.

Object identification

Identified? True

Debris? True

Object name: COSMOS 2251 DEB

International designator: 1993-036BPS

Object number (NORAD): 37967

Object ID (CCSDS): 37967

Country: COMMONWEALTH OF INDEPENDENT STATES (CIS)

Current information (Y/N): Y

RCS size: SMALL

Orbital parameters

Period: 99.967 minutes

Inclination: 74.015 deg

SMA: 7135.051 km

Apoapsis: 864.574 km

Periapsis: 649.258 km

RAAN: 141.1866 deg

Eccentricy: 0.01508864

Argument of periapsis: 280.4085 deg

Mean anomaly: 78.0095 deg

Mean motion: 14.4047963 rev/day

Mean motion (dot): 0.00008707 rev/day2

B* drag term: 0.0023977147 1/REarth

Two-line elements (TLE)

Creation date: Dec. 11, 2025, 3:54 a.m.

Reference frame: TEME

Reference center: EARTH

Epoch: Dec. 10, 2025, 4:28 p.m. UTC

TLE line 0: 0 COSMOS 2251 DEB

TLE line 1: 1 37967U 93036BPS 25344.68659892 .00008707 00000-0 23977-2 0 9996

TLE line 2: 2 37967 74.0150 141.1866 0150886 280.4085 78.0095 14.40479630647063

Live tracking on map

Real-time ground track for satellite COSMOS 2251 DEB.

In-orbit conjunctions

A list of the most updated potential collisions computed for object COSMOS 2251 DEB.

Target Orbit TCA Probability of collision Miss distance Type
NOAA 16 DEB SSO 2024-11-16 19:18:24 0.0003310788 732.0 (m) DEBRIS
FENGYUN 1C DEB SSO 2024-11-12 08:12:15 0.0002371262 902.0 (m) DEBRIS

Associated space launch

Military communications satellite. Destroyed in a collision with Iridium 33.

COSMOS 2251 DEB was lifted into orbit during the mission ‘Kosmos-3M | Strela-2M 51’, on board a Kosmos-3M space rocket.

The launch took place on June 16, 1993, 4:17 a.m. from 132/1 (132L).

For more information about the launch, click the button.

Launch to space Kosmos-3M | Strela-2M 51
Kosmos-3M | Strela-2M 51

Agency: N/A

Status: Launch Successful

Launch date: June 16, 1993, 4:17 a.m. UTC

Rocket: Kosmos-3M

Launch pad: 132/1 (132L)

Location: Plesetsk Cosmodrome, Russian Federation

...

Latest news about this satellite

There are no fresh news available about this satellite. Check back as we update our databases every day.


Newsletter sign-up

Weekly statistics, charts and insights to help you stay on top of the space industry.